This is the latest recevied weather packets stored in our database for station/object DM4XI-13. If no packets are shown the sender has not sent any weather packets the latest 10 day(s).
| Time | Temp. | Humidity | Pressure | Rain* | Wind** | Luminosity | Snow |
|---|---|---|---|---|---|---|---|
| 1778244171 | 16.67° C | 53% | 1015.1 hPa | 0 mm | 0.89 m/s, 349° | 416 W/m² | - |
| 1778244110 | 16.67° C | 51% | 1015.2 hPa | 0 mm | 0.45 m/s, 24° | 317 W/m² | - |
| 1778244049 | 16.67° C | 52% | 1015.1 hPa | 0 mm | 0.45 m/s, 295° | 328 W/m² | - |
| 1778243988 | 16.67° C | 51% | 1015.2 hPa | 0 mm | 0.89 m/s, 7° | 222 W/m² | - |
| 1778243927 | 16.67° C | 51% | 1015.1 hPa | 0 mm | 0.45 m/s, 21° | 686 W/m² | - |
| 1778243866 | 16.67° C | 52% | 1015.2 hPa | 0 mm | 2.68 m/s, 326° | 705 W/m² | - |
| 1778243805 | 16.67° C | 53% | 1015.2 hPa | 0 mm | 1.34 m/s, 324° | 198 W/m² | - |
| 1778243744 | 16.67° C | 53% | 1015.2 hPa | 0 mm | 0.89 m/s, 236° | 214 W/m² | - |
| 1778243683 | 16.67° C | 51% | 1015.1 hPa | 0 mm | 0.89 m/s, 20° | 429 W/m² | - |
| 1778243621 | 16.67° C | 52% | 1015.2 hPa | 0 mm | 1.34 m/s, 331° | 234 W/m² | - |
| 1778243561 | 16.67° C | 54% | 1015.1 hPa | 0 mm | 0.45 m/s, 28° | 769 W/m² | - |
| 1778243500 | 16.67° C | 51% | 1015.2 hPa | 0 mm | 0 m/s | 766 W/m² | - |
| 1778243439 | 17.22° C | 51% | 1015.1 hPa | 0 mm | 0 m/s | 324 W/m² | - |
| 1778243378 | 17.78° C | 50% | 1015.2 hPa | 0 mm | 0.45 m/s, 139° | 236 W/m² | - |
| 1778243318 | 17.78° C | 48% | 1015.3 hPa | 0 mm | 0.45 m/s, 64° | 233 W/m² | - |
| 1778243256 | 17.78° C | 47% | 1015.1 hPa | 0 mm | 0.45 m/s, 148° | 239 W/m² | - |
| 1778243195 | 17.78° C | 48% | 1015.2 hPa | 0 mm | 0.45 m/s, 33° | 258 W/m² | - |
| 1778243134 | 17.78° C | 49% | 1015.1 hPa | 0 mm | 0 m/s | 314 W/m² | - |
| 1778243073 | 17.78° C | 48% | 1015.3 hPa | 0 mm | 0.45 m/s, 236° | 387 W/m² | - |
| 1778243012 | 17.78° C | 49% | 1015.3 hPa | 0 mm | 0.45 m/s, 268° | 332 W/m² | - |
| 1778242951 | 17.78° C | 49% | 1015.3 hPa | 0 mm | 0.45 m/s, 231° | 508 W/m² | - |
| 1778242890 | 17.78° C | 49% | 1015.2 hPa | 0 mm | 0.45 m/s, 359° | 559 W/m² | - |
| 1778242829 | 17.78° C | 51% | 1015.2 hPa | 0 mm | 1.34 m/s, 300° | 505 W/m² | - |
| 1778242768 | 17.78° C | 51% | 1015.2 hPa | 0 mm | 0.45 m/s, 172° | 688 W/m² | - |
| 1778242706 | 17.22° C | 51% | 1015.2 hPa | 0 mm | 0.45 m/s, 206° | 694 W/m² | - |
* Rain latest hour (hover to see other rain measurements)
** Current wind speed in m/s (hover to see current wind gust speed)